Date,TemperatureHighF,TemperatureAvgF,TemperatureLowF,DewpointHighF,DewpointAvgF,DewpointLowF,HumidityHigh,HumidityAvg,HumidityLow,PressureMaxIn,PressureMinIn,WindSpeedMaxMPH,WindSpeedAvgMPH,GustSpeedMaxMPH,PrecipitationSumIn
2013-1-1,43.1,41.0,37.3,30.1,14.0,2.7,70,37,20,30.11,29.95,2,0,3,0.55
2013-1-2,43.8,40.8,37.5,34.3,19.2,3.7,69,45,21,30.13,29.90,2,0,5,0.05
2013-1-3,41.8,36.9,30.8,33.0,14.7,0.8,73,46,21,30.28,30.08,2,0,11,0.01
2013-1-4,42.2,33.6,28.0,24.6,21.8,19.6,74,63,41,30.38,30.25,3,1,6,0.00
2013-1-5,46.0,35.7,27.6,29.6,23.6,18.9,74,62,38,30.39,30.22,3,0,11,0.01
2013-1-6,51.2,40.0,35.1,38.3,28.0,3.8,72,63,25,30.22,30.03,3,0,8,0.00
2013-1-7,49.4,36.5,26.9,30.5,25.0,10.3,73,64,43,30.41,30.19,4,1,6,0.00
2013-1-8,49.9,34.5,22.7,38.9,13.9,-6.5,72,45,22,30.47,30.37,1,0,3,0.00
2013-1-9,51.4,46.8,40.5,25.0,10.9,3.9,36,23,18,30.46,30.38,0,0,2,0.00
2013-1-10,60.8,49.9,40.1,49.0,23.2,3.6,69,38,20,30.50,30.32,2,0,5,0.02
2013-1-11,52.5,50.1,47.0,15.7,11.6,6.8,23,21,19,30.32,30.11,1,0,2,0.41
2013-1-12,66.7,56.9,49.2,41.6,19.9,8.6,42,24,17,30.14,30.05,1,0,6,0.00
2013-1-13,65.9,58.3,49.3,54.2,28.6,9.9,66,36,16,30.08,30.00,3,0,9,0.03
2013-1-14,59.9,56.7,46.6,21.4,16.6,7.6,23,21,17,30.10,29.99,2,0,3,0.80
2013-1-15,51.8,47.8,43.8,16.1,11.1,7.2,24,22,20,30.10,30.01,1,0,5,0.79
2013-1-16,54.8,49.9,44.0,20.0,15.0,8.5,26,24,23,30.01,29.93,1,0,1,0.35
2013-1-17,52.1,43.7,32.8,16.4,9.3,0.8,33,24,22,30.17,29.75,3,0,10,1.92
2013-1-18,45.7,33.7,27.8,29.9,19.3,-1.9,73,57,27,30.50,30.17,3,1,8,0.01
2013-1-19,50.2,33.8,23.4,33.2,12.4,-6.7,71,43,24,30.49,30.19,1,0,3,0.00
2013-1-20,56.8,41.5,28.7,36.7,25.2,-0.5,74,53,27,30.19,30.05,3,1,5,0.00
2013-1-21,51.8,36.6,26.5,31.7,15.9,-5.2,72,44,22,30.08,29.95,3,1,9,0.00
2013-1-22,32.1,26.3,20.7,15.6,6.6,0.0,60,44,26,30.27,30.01,3,1,10,0.00
2013-1-23,43.9,29.3,20.2,23.8,15.1,5.1,72,56,40,30.35,30.09,2,0,4,0.00
2013-1-24,39.6,32.0,22.2,30.1,15.9,2.1,71,53,25,30.45,30.01,5,1,12,0.00
2013-1-25,35.8,25.4,19.2,15.5,6.7,-1.9,73,47,21,30.47,30.11,2,0,5,0.00
2013-1-26,45.9,36.1,28.0,27.7,18.6,-0.5,72,52,21,30.33,30.12,3,0,6,0.01
2013-1-27,40.6,31.8,23.1,29.7,17.1,-6.6,74,57,25,30.53,30.33,2,0,4,0.01
2013-1-28,63.6,45.6,33.1,49.7,30.0,5.4,71,56,20,30.46,30.21,4,1,9,0.00
2013-1-29,67.8,52.2,38.3,55.2,24.8,1.3,68,38,17,30.23,29.99,3,0,5,0.08
2013-1-30,61.2,57.4,44.7,32.2,14.5,7.4,61,19,16,29.99,29.40,4,1,10,2.09
2013-1-31,45.0,35.3,27.2,33.0,23.3,16.3,74,62,41,30.01,29.46,3,1,8,0.00
2013-2-1,40.4,28.0,21.6,30.2,15.1,7.9,73,59,41,30.36,29.90,5,1,8,0.00
2013-2-2,41.0,29.7,18.7,29.7,16.8,10.1,74,60,35,30.37,30.04,2,0,6,0.00
2013-2-3,46.0,35.9,29.5,31.5,24.2,10.1,73,63,37,30.04,29.87,4,1,15,0.00
2013-2-4,50.7,35.9,26.2,28.2,23.3,18.4,73,61,37,30.13,29.98,3,0,6,0.00
2013-2-5,59.5,41.3,28.9,39.0,27.6,9.8,72,59,34,30.00,29.89,3,0,5,0.00
2013-2-6,58.3,42.1,30.5,33.6,24.3,-2.2,72,51,23,30.21,30.00,2,0,4,0.00
2013-2-7,43.4,37.8,31.7,32.6,15.4,0.8,72,46,19,30.23,29.99,2,0,3,0.39
2013-2-8,51.7,42.1,33.7,39.9,18.4,2.0,72,44,20,30.11,29.90,5,1,12,0.00
2013-2-9,55.6,38.1,29.5,26.8,21.8,9.9,73,56,16,30.33,30.08,4,1,9,0.00
2013-2-10,49.1,38.9,29.6,34.5,19.7,0.9,71,49,19,30.40,30.16,2,0,5,0.41
2013-2-11,58.2,50.0,41.1,45.6,22.7,3.0,70,38,18,30.17,29.95,1,0,3,0.07
2013-2-12,52.1,44.6,39.4,34.4,24.6,1.7,63,47,20,30.08,29.89,3,0,16,0.12
2013-2-13,50.2,39.1,35.2,39.3,18.5,1.2,72,50,20,29.92,29.66,3,1,8,0.12
2013-2-14,51.2,39.0,30.3,37.3,28.4,20.8,73,66,46,30.04,29.88,2,1,5,0.00
2013-2-15,54.5,44.3,27.9,36.3,30.1,-1.8,71,59,27,30.06,29.94,2,1,5,0.00
2013-2-16,35.8,31.1,23.3,25.9,20.8,11.6,72,66,46,30.00,29.82,4,1,12,0.00
2013-2-17,36.8,26.9,20.6,15.6,10.7,7.9,70,51,32,30.28,30.00,4,1,15,0.00
2013-2-18,50.8,32.8,18.1,27.7,19.0,6.3,72,58,37,30.39,30.19,2,0,5,0.00
2013-2-19,53.7,41.6,35.3,40.6,20.8,-1.4,69,46,20,30.20,29.85,2,0,14,0.11
2013-2-20,46.6,37.1,29.0,13.3,10.1,5.1,51,34,19,30.12,30.01,3,1,8,0.00
2013-2-21,58.0,40.2,25.9,33.5,15.6,1.0,68,40,15,30.22,30.07,2,0,6,0.24
2013-2-22,39.1,36.7,34.1,6.3,1.2,-1.6,28,22,20,30.25,30.08,1,0,4,0.45
2013-2-23,51.7,43.4,36.9,28.5,8.3,1.6,41,24,19,30.10,29.82,1,0,2,0.26
2013-2-24,55.9,44.9,37.6,35.3,26.1,5.1,71,48,20,30.01,29.84,4,0,8,0.00
2013-2-25,44.8,36.6,29.9,29.6,23.9,5.1,71,60,30,30.13,29.97,2,0,7,0.01
2013-2-26,37.8,34.4,31.5,5.0,-0.6,-3.9,30,22,21,30.02,29.59,4,1,6,1.39
2013-2-27,53.5,40.7,31.2,37.6,17.7,-1.5,69,42,23,29.75,29.65,3,0,5,0.01
2013-2-28,41.6,36.0,31.9,28.9,25.1,8.2,72,65,31,29.90,29.69,4,1,8,0.00
2013-3-1,40.5,34.7,31.1,29.7,25.4,20.9,72,68,64,29.93,29.86,2,1,7,0.00
2013-3-2,42.4,33.3,27.5,27.7,20.8,4.3,72,61,31,29.93,29.84,4,1,8,0.02
2013-3-3,33.6,27.1,23.1,19.2,16.4,14.1,73,64,50,30.03,29.91,5,2,14,0.00
2013-3-4,51.7,34.8,24.1,25.8,18.7,14.5,72,54,25,30.16,30.02,3,1,7,0.00
2013-3-5,50.0,40.2,32.2,40.2,20.9,3.0,71,51,18,30.07,29.63,3,0,6,0.62
2013-3-6,35.9,30.3,26.2,26.0,20.4,11.2,72,66,50,30.18,29.66,5,2,17,0.01
2013-3-7,45.0,33.2,27.9,30.8,22.9,16.0,72,66,54,30.27,30.14,3,2,11,0.00
2013-3-8,52.1,37.2,27.0,27.2,22.6,17.5,73,57,34,30.34,30.25,3,1,12,0.00
2013-3-9,59.9,40.6,24.0,33.9,23.7,3.2,71,53,30,30.35,30.23,2,0,6,0.00
2013-3-10,62.4,46.0,31.8,37.1,29.6,15.1,70,54,35,30.28,30.14,3,0,5,0.00
2013-3-11,55.3,48.8,42.1,44.0,20.8,6.4,69,38,17,30.16,29.80,1,0,4,0.80
2013-3-12,53.3,46.4,38.6,39.4,23.5,4.5,70,45,20,30.00,29.72,3,1,7,0.35
2013-3-13,47.3,37.1,28.1,29.7,21.9,-0.3,72,55,27,30.14,30.00,5,1,9,0.00
2013-3-14,46.7,36.6,26.7,20.3,16.2,8.7,64,45,28,30.30,30.14,4,1,11,0.00
2013-3-15,69.8,45.7,26.4,40.9,29.1,18.1,72,56,26,30.22,29.92,3,0,7,0.00
2013-3-16,78.3,61.2,46.5,47.3,42.6,35.7,69,53,29,29.92,29.69,4,1,8,0.00
2013-3-17,72.6,57.2,46.3,49.5,42.0,25.3,69,58,40,29.96,29.78,3,1,6,0.00
2013-3-18,47.0,40.4,37.6,33.8,7.0,0.1,60,27,20,30.02,29.84,2,0,4,0.46
2013-3-19,57.8,44.5,35.0,32.7,17.5,0.1,69,36,21,30.06,29.86,4,1,11,0.00
2013-3-20,55.7,42.0,32.0,27.5,14.9,7.7,66,34,15,30.08,29.80,3,1,9,0.00
2013-3-21,36.5,30.8,26.7,19.1,14.4,10.0,71,51,38,29.97,29.76,5,1,13,0.02
2013-3-22,50.1,35.9,24.2,27.1,18.1,12.0,66,49,31,30.07,29.97,3,0,5,0.00
2013-3-23,60.3,43.1,35.1,46.4,26.5,-0.1,70,54,20,30.02,29.85,2,0,5,0.05
2013-3-24,43.5,40.7,37.4,24.6,6.2,0.7,47,24,19,29.91,29.51,3,1,9,0.78
2013-3-25,39.7,35.1,31.0,25.9,19.2,0.1,72,55,21,29.89,29.52,3,1,7,0.03
2013-3-26,38.9,31.9,27.8,26.5,22.7,18.8,73,69,58,30.20,29.88,5,2,16,0.00
2013-3-27,46.4,35.0,29.0,27.0,23.5,19.4,73,64,44,30.28,30.18,4,1,8,0.00
2013-3-28,52.2,38.5,30.1,25.5,22.1,20.0,71,54,30,30.31,30.21,4,1,13,0.00
2013-3-29,59.5,39.7,24.2,36.1,24.4,8.3,72,57,26,30.35,30.22,2,0,4,0.00
2013-3-30,61.0,48.1,39.6,44.2,23.5,0.6,68,42,19,30.23,30.03,2,0,4,0.10
2013-3-31,65.6,52.9,45.8,50.9,19.6,4.6,67,30,16,30.03,29.79,3,0,5,0.35
2013-4-1,65.3,52.1,38.6,43.6,27.1,0.9,66,41,18,29.95,29.82,4,1,8,0.02
2013-4-2,59.8,50.2,41.1,35.6,26.9,20.5,67,42,26,30.11,29.94,3,0,7,0.00
2013-4-3,58.8,47.4,36.9,33.2,24.5,18.8,62,42,28,30.23,30.10,3,0,7,0.00
2013-4-4,45.6,37.8,33.9,31.8,10.9,-1.3,67,35,20,30.22,29.97,2,0,7,0.82
2013-4-5,59.1,45.5,36.1,43.4,22.9,-0.6,69,44,20,30.06,29.91,3,1,13,0.00
2013-4-6,66.3,49.5,33.3,39.0,29.5,-2.4,70,48,20,30.21,30.06,3,0,10,0.00
2013-4-7,68.1,52.8,36.3,46.8,37.0,11.4,70,56,34,30.19,30.06,3,1,6,0.00
2013-4-8,74.3,57.4,41.0,53.0,34.2,1.8,67,44,18,30.13,30.02,4,1,9,0.00
2013-4-9,80.5,62.0,46.0,58.1,39.1,4.8,66,46,17,30.16,30.03,3,0,6,0.00
2013-4-10,83.0,65.3,48.5,58.7,40.3,6.0,66,42,17,30.07,29.89,2,0,9,0.01
2013-4-11,75.0,66.8,54.9,59.3,44.0,14.0,66,48,14,29.91,29.65,2,1,5,0.27
2013-4-12,72.2,62.5,52.8,56.8,32.7,12.1,67,37,14,29.78,29.58,4,1,9,1.04
2013-4-13,71.8,59.1,50.0,41.8,37.2,30.9,65,46,24,29.99,29.75,4,1,9,0.00
2013-4-14,68.5,53.9,38.2,47.4,35.9,4.1,70,52,22,30.07,29.94,2,0,6,0.00
2013-4-15,62.9,56.2,51.3,50.1,23.8,6.5,63,32,16,30.17,29.93,3,0,5,0.23
2013-4-16,75.3,63.5,55.3,60.4,36.0,9.8,68,41,16,30.24,30.12,2,0,7,0.00
2013-4-17,74.3,61.2,53.6,61.3,23.0,8.6,66,26,14,30.20,30.09,3,0,5,0.61
2013-4-18,73.5,63.1,54.4,59.5,35.1,11.6,67,40,17,30.10,29.90,2,0,8,0.00
2013-4-19,64.8,59.5,43.7,39.9,20.4,12.9,70,26,14,29.90,29.67,3,0,8,0.66
2013-4-20,59.4,46.1,36.5,36.4,31.0,27.2,71,57,33,30.26,29.86,4,1,9,0.00
2013-4-21,60.9,45.9,31.4,39.3,25.8,-4.2,69,47,19,30.41,30.26,4,1,6,0.00
2013-4-22,63.1,49.4,40.1,40.9,35.2,17.3,70,59,39,30.38,30.17,3,1,6,0.00
2013-4-23,70.9,51.0,32.3,48.2,32.4,-3.0,71,50,20,30.25,30.08,2,0,7,0.00
2013-4-24,71.1,56.4,41.8,55.5,32.1,1.4,65,43,18,30.11,29.96,2,0,6,0.00
2013-4-25,68.8,55.4,44.4,41.7,30.5,22.7,65,42,18,30.27,30.04,3,0,7,0.00
2013-4-26,66.3,54.3,43.7,43.1,35.4,29.1,67,50,32,30.37,30.26,2,0,5,0.00
2013-4-27,55.3,51.6,49.4,44.4,22.7,6.7,68,37,16,30.33,30.22,0,0,0,0.47
2013-4-28,51.7,49.6,46.1,13.8,10.2,6.3,22,20,19,30.23,30.01,1,0,2,1.54
2013-4-29,68.0,57.5,50.6,55.6,28.1,9.6,65,36,16,30.05,29.90,2,0,6,0.04
2013-4-30,72.2,58.9,46.3,59.2,30.0,5.6,66,38,17,30.13,29.95,2,0,8,0.00
2013-5-1,63.0,58.0,54.8,51.9,38.5,16.5,68,50,21,30.22,30.12,3,1,6,0.00
2013-5-2,58.4,54.9,52.6,33.2,16.0,8.2,42,22,16,30.25,30.18,2,0,5,0.06
2013-5-3,58.5,53.8,50.8,44.7,22.5,9.4,61,33,17,30.20,30.04,3,1,6,0.05
2013-5-4,54.2,48.9,46.5,41.7,21.6,6.8,67,38,18,30.04,29.93,4,1,9,0.41
2013-5-5,48.9,47.2,44.8,10.2,7.6,5.5,22,20,18,29.96,29.84,5,2,12,1.03